アラン-リゴー彗星

49P/Arend-Rigaux (1998)

English version
Home page
Total 6,336 html files since Dec. 4, 1995
Updated on October 8, 2004

---------------------------------------------------------------------

・ プロフィール

・ 軌道要素

   The following improved orbital elements by Kenji Muraoka,
  are from 223 observations 1951 to 1999, including 9 Planets,
  Moon and 5 minor planets perturbations and non-gravitational
  effect of style II.  The mean residual is +/- 0.91 arc seconds.

      Epoch  =  1998 July  6.0  TT       JDT = 2451000.5
          T  =  1998 July 12.59473       +/- 0.00022 (m.e.) TT
       Peri. =  330.56151                +/- 0.00011
       Node  =  121.72931                +/- 0.00005   (2000.0)
       Incl. =   18.29068                +/- 0.00002
          q  =    1.3685913              +/- 0.0000004 AU
          e  =    0.6115409              +/- 0.0000001
          a  =    3.5231283              +/- 0.0000004 AU
          n  =    0.14904293             +/- 0.00000002
          P  =    6.613                  +/- 0.0000011  years
         A1  =   +0.013                  +/- 0.004
         A2  =   -0.00047                +/- 0.00003

・ 星図

・ 光度変化

        H = 14.0  G = 0.15

---------------------------------------------------------------------

軌道要素は村岡健治氏の計算によるものです。
星図は StellaNavigator Ver.2.0 for Windows (アストロアーツ 編著 / アスキー出版局刊) で作成したものです。
光度グラフはComet for Windowsで作成したものです。

---------------------------------------------------------------------

Copyright(C) 1995-2008 Seiichi Yoshida (comet@aerith.net). All rights reserved.